GW4126 Weather Reports


Display with metric or nautical units.
time (UTC)temp
F
wind
direction
speed
MPH
gust
MPH
rain 1hr
in
rain 24hr
in
rain mn
in
humidity
%
barometer
mb
20260906225033 60 185 4.0 9.0 0.00 0.00 0.00 80 1017.8
20260906224552 61 166 6.0 9.0 0.00 0.00 0.00 80 1017.9
20260906224029 61 180 4.0 10.0 0.00 0.00 0.00 80 1017.9
20260906223530 61 225 5.0 10.0 0.00 0.00 0.00 81 1017.7
20260906223055 60 205 4.0 10.0 0.00 0.00 0.00 80 1017.8
20260906222528 60 220 6.0 10.0 0.00 0.00 0.00 82 1017.8
20260906222029 60 187 5.0 9.0 0.00 0.00 0.00 82 1017.9
20260906221559 60 269 5.0 9.0 0.00 0.00 0.00 81 1017.9
20260906221033 60 230 7.0 9.0 0.00 0.00 0.00 83 1017.9
20260906220529 59 256 4.0 8.0 0.00 0.00 0.00 83 1017.9
20260906220106 59 207 3.0 8.0 0.00 0.00 0.00 83 1018.0
20260906215529 59 222 3.0 8.0 0.00 0.00 0.00 83 1018.0
20260906215029 59 210 5.0 8.0 0.00 0.00 0.00 84 1018.0
20260906214559 59 230 6.0 8.0 0.00 0.00 0.00 84 1018.0
20260906214029 59 254 5.0 9.0 0.00 0.00 0.00 84 1017.9
20260906213530 58 222 5.0 9.0 0.00 0.00 0.00 84 1018.0
20260906213047 58 204 6.0 8.0 0.00 0.00 0.00 84 1018.0
20260906212528 58 228 5.0 8.0 0.00 0.00 0.00 84 1018.0
20260906212030 58 219 4.0 8.0 0.00 0.00 0.00 85 1018.1
20260906211558 58 223 6.0 9.0 0.00 0.00 0.00 84 1018.1
20260906211029 58 221 6.0 9.0 0.00 0.00 0.00 85 1018.1
20260906210529 58 200 6.0 8.0 0.00 0.00 0.00 85 1018.1
20260906210052 58 198 5.0 9.0 0.00 0.00 0.00 85 1018.2
20260906205529 58 205 6.0 9.0 0.00 0.00 0.00 85 1018.2
20260906205033 58 213 6.0 9.0 0.00 0.00 0.00 85 1018.2
20260906204551 58 223 4.0 8.0 0.00 0.00 0.00 85 1018.1
20260906204029 58 207 4.0 8.0 0.00 0.00 0.00 85 1018.1
20260906203530 58 225 5.0 7.0 0.00 0.00 0.00 85 1018.1
20260906203048 58 220 2.0 7.0 0.00 0.00 0.00 85 1018.1
20260906202530 58 217 3.0 7.0 0.00 0.00 0.00 86 1018.1
20260906202029 58 198 3.0 7.0 0.00 0.00 0.00 86 1018.1
20260906201547 58 198 4.0 7.0 0.00 0.00 0.00 86 1018.1
20260906201029 57 174 3.0 8.0 0.00 0.00 0.00 87 1018.2
20260906200529 57 174 6.0 8.0 0.00 0.00 0.00 86 1018.2
20260906200055 57 165 5.0 8.0 0.00 0.00 0.00 86 1018.3
20260906195529 57 157 5.0 8.0 0.00 0.00 0.00 86 1018.4
20260906195030 58 148 5.0 8.0 0.00 0.00 0.00 86 1018.3
20260906194551 58 163 4.0 8.0 0.00 0.00 0.00 86 1018.4
20260906194031 58 171 5.0 8.0 0.00 0.00 0.00 86 1018.4
20260906193530 58 176 5.0 8.0 0.00 0.00 0.00 87 1018.2
20260906193050 57 186 6.0 8.0 0.00 0.00 0.00 88 1018.4
20260906192530 57 190 5.0 8.0 0.00 0.00 0.00 88 1018.5
20260906192032 57 193 5.0 7.0 0.00 0.00 0.00 89 1018.5
20260906191555 57 124 5.0 9.0 0.00 0.00 0.00 88 1018.4
20260906191029 57 158 3.0 9.0 0.00 0.00 0.00 89 1018.4
20260906190532 56 196 5.0 9.0 0.00 0.00 0.00 89 1018.5
20260906190051 56 201 4.0 9.0 0.00 0.00 0.00 89 1018.5
20260906185529 56 157 6.0 9.0 0.00 0.00 0.00 89 1018.5
20260906185029 56 153 4.0 9.0 0.00 0.00 0.00 90 1018.4
20260906184558 56 177 6.0 9.0 0.00 0.00 0.00 90 1018.4
20260906184028 56 182 5.0 8.0 0.00 0.00 0.00 90 1018.4
20260906183529 57 137 6.0 8.0 0.00 0.00 0.00 90 1018.4
20260906183047 57 137 5.0 7.0 0.00 0.00 0.00 91 1018.4
20260906182529 56 168 4.0 10.0 0.00 0.00 0.00 92 1018.4
20260906182029 56 160 6.0 10.0 0.00 0.00 0.00 92 1018.5
20260906181553 56 163 5.0 8.0 0.00 0.00 0.00 93 1018.4
20260906181029 56 158 5.0 8.0 0.00 0.00 0.00 94 1018.4
20260906180529 56 123 3.0 8.0 0.00 0.00 0.00 94 1018.4
20260906180109 56 121 5.0 8.0 0.00 0.00 0.00 95 1018.4
20260906175532 55 130 4.0 6.0 0.00 0.00 0.00 95 1018.5
20260906175029 55 158 3.0 4.0 0.00 0.00 0.00 95 1018.5
20260906174548 55 107 2.0 4.0 0.00 0.00 0.00 96 1018.6
20260906174029 55 107 2.0 6.0 0.00 0.00 0.00 96 1018.7
20260906173529 55 101 3.0 6.0 0.00 0.00 0.00 96 1018.8
20260906173049 55 135 1.0 3.0 0.00 0.00 0.00 96 1018.7
20260906172528 55 135 2.0 3.0 0.00 0.00 0.00 96 1018.7
20260906172029 54 135 1.0 3.0 0.00 0.00 0.00 96 1018.9
20260906171552 54 135 2.0 3.0 0.00 0.00 0.00 96 1018.9
20260906171028 54 135 1.0 4.0 0.00 0.00 0.00 96 1018.8
20260906170529 54 135 1.0 4.0 0.00 0.00 0.00 96 1018.8
20260906170055 54 192 1.0 3.0 0.00 0.00 0.00 96 1018.8
20260906165529 54 192 0.0 2.0 0.00 0.00 0.00 96 1018.7
20260906165033 54 192 1.0 3.0 0.00 0.00 0.00 96 1018.7
20260906164549 54 192 1.0 3.0 0.00 0.00 0.00 96 1018.8
20260906164031 54 192 2.0 3.0 0.00 0.00 0.00 96 1018.8
20260906163530 54 192 1.0 3.0 0.00 0.00 0.00 96 1018.8
20260906163116 54 192 1.0 3.0 0.00 0.00 0.00 96 1018.9
20260906162531 54 192 1.0 3.0 0.00 0.00 0.00 96 1018.9
20260906162029 54 192 2.0 4.0 0.00 0.00 0.00 96 1018.8
20260906161550 54 192 1.0 4.0 0.00 0.00 0.00 96 1018.7
20260906161032 53 192 2.0 4.0 0.00 0.00 0.00 96 1018.6
20260906160529 53 192 1.0 5.0 0.00 0.00 0.00 96 1018.6
20260906160051 53 192 3.0 8.0 0.00 0.00 0.00 96 1018.7
20260906155531 53 165 4.0 8.0 0.00 0.00 0.00 96 1018.6
20260906155031 53 163 3.0 7.0 0.00 0.00 0.00 96 1018.6
20260906154545 53 174 3.0 7.0 0.00 0.00 0.00 96 1018.5
20260906154029 53 157 2.0 7.0 0.00 0.00 0.00 96 1018.5
20260906153529 53 169 5.0 8.0 0.00 0.00 0.00 96 1018.5
20260906153053 53 161 6.0 8.0 0.00 0.00 0.00 96 1018.5
20260906152528 53 150 4.0 8.0 0.00 0.00 0.00 96 1018.5
20260906152029 53 119 5.0 9.0 0.00 0.00 0.00 96 1018.4
20260906151549 53 157 6.0 9.0 0.00 0.00 0.00 96 1018.3
20260906151029 53 116 5.0 8.0 0.00 0.00 0.00 96 1018.3
20260906150529 53 169 5.0 8.0 0.00 0.00 0.00 96 1018.4
20260906150049 53 146 4.0 5.0 0.00 0.00 0.00 96 1018.5
20260906145529 53 161 4.0 8.0 0.00 0.00 0.00 96 1018.5
20260906145029 53 142 3.0 8.0 0.00 0.00 0.00 96 1018.4
20260906144554 53 144 4.0 9.0 0.00 0.00 0.00 96 1018.5
20260906144030 53 149 5.0 9.0 0.00 0.00 0.00 96 1018.5
20260906143537 53 131 5.0 9.0 0.00 0.00 0.00 96 1018.5
20260906143054 53 152 5.0 8.0 0.00 0.00 0.00 96 1018.4
20260906142529 52 132 3.0 8.0 0.00 0.00 0.00 96 1018.3
20260906142029 52 124 4.0 9.0 0.00 0.00 0.00 96 1018.3
20260906141547 52 114 5.0 9.0 0.00 0.00 0.00 96 1018.2
20260906141029 52 146 7.0 9.0 0.00 0.00 0.00 96 1018.3
20260906140531 52 136 5.0 9.0 0.00 0.00 0.00 96 1018.3
20260906140054 52 125 5.0 8.0 0.00 0.00 0.00 96 1018.3
20260906135529 52 151 4.0 8.0 0.00 0.00 0.00 96 1018.3
20260906135030 52 115 6.0 8.0 0.00 0.00 0.00 96 1018.3
20260906134551 52 128 3.0 7.0 0.00 0.00 0.00 96 1018.4
20260906134029 52 106 3.0 9.0 0.00 0.00 0.00 96 1018.4
20260906133528 52 114 5.0 9.0 0.00 0.00 0.00 96 1018.4
20260906133056 52 101 4.0 10.0 0.00 0.00 0.00 96 1018.3
20260906132529 52 157 6.0 11.0 0.00 0.00 0.00 96 1018.2
20260906132029 52 120 5.0 11.0 0.00 0.00 0.00 96 1018.3
20260906131608 52 153 8.0 11.0 0.00 0.00 0.00 96 1018.2
20260906131029 52 156 7.0 10.0 0.00 0.00 0.00 96 1018.4
20260906130531 52 144 5.0 9.0 0.00 0.00 0.00 96 1018.3
20260906130104 52 146 5.0 9.0 0.00 0.00 0.00 96 1018.4
20260906125529 52 130 5.0 9.0 0.00 0.00 0.00 96 1018.3
20260906125032 52 148 4.0 9.0 0.00 0.00 0.00 96 1018.3
20260906124554 52 122 4.0 8.0 0.00 0.00 0.00 96 1018.3
20260906124029 52 126 5.0 10.0 0.00 0.00 0.00 96 1018.4
20260906123529 52 107 6.0 10.0 0.00 0.00 0.00 96 1018.4
20260906123052 52 128 7.0 11.0 0.00 0.00 0.00 96 1018.4
20260906122529 52 124 6.0 12.0 0.00 0.00 0.00 96 1018.3
20260906122028 52 103 6.0 12.0 0.00 0.00 0.00 96 1018.3
20260906121549 51 360 9.0 17.0 0.00 0.00 0.00 95 1018.1
20260906121032 51 124 10.0 19.0 0.00 0.00 0.00 96 1018.1
20260906120530 51 119 11.0 19.0 0.00 0.00 0.00 96 1017.9
20260906120059 51 144 13.0 18.0 0.00 0.00 0.00 95 1017.8
20260906115529 51 145 12.0 18.0 0.00 0.00 0.00 95 1017.7
20260906115028 52 140 11.0 17.0 0.00 0.00 0.00 95 1017.7
20260906114551 52 158 11.0 16.0 0.00 0.00 0.00 95 1017.7
20260906114028 52 136 11.0 16.0 0.00 0.00 0.00 95 1017.7
20260906113528 52 154 12.0 16.0 0.00 0.00 0.00 95 1017.7
20260906113049 52 150 10.0 16.0 0.00 0.00 0.00 95 1017.8
20260906112528 52 160 11.0 15.0 0.00 0.00 0.00 95 1017.7
20260906112029 52 150 11.0 15.0 0.00 0.00 0.00 95 1017.7
20260906111543 52 144 10.0 17.0 0.00 0.00 0.00 95 1017.7
20260906111029 52 138 11.0 17.0 0.00 0.00 0.00 95 1017.6
20260906110529 52 141 9.0 14.0 0.00 0.00 0.00 95 1017.6
20260906110050 52 132 9.0 13.0 0.00 0.00 0.00 95 1017.7
20260906105531 52 147 8.0 15.0 0.00 0.00 0.00 95 1017.7
20260906105029 52 145 9.0 15.0 0.00 0.00 0.00 95 1017.6
20260906104548 52 142 9.0 13.0 0.00 0.00 0.00 95 1017.6
20260906104030 52 135 10.0 13.0 0.00 0.00 0.00 95 1017.5
20260906103528 52 137 9.0 13.0 0.00 0.00 0.00 95 1017.6
20260906103048 53 130 9.0 11.0 0.00 0.00 0.00 95 1017.6
20260906102530 53 121 8.0 11.0 0.00 0.00 0.00 95 1017.5
20260906102029 53 146 7.0 12.0 0.00 0.00 0.00 95 1017.5
20260906101552 53 146 10.0 12.0 0.00 0.00 0.00 95 1017.4
20260906101029 53 136 6.0 12.0 0.00 0.00 0.00 94 1017.5
20260906100532 53 150 6.0 12.0 0.00 0.00 0.00 94 1017.6
20260906100050 53 116 7.0 12.0 0.00 0.00 0.00 94 1017.7
20260906095530 53 140 7.0 12.0 0.00 0.00 0.00 94 1017.5
20260906095029 53 143 7.0 12.0 0.00 0.00 0.00 94 1017.5
20260906094549 54 144 8.0 12.0 0.00 0.00 0.00 94 1017.3
20260906094030 54 149 4.0 11.0 0.00 0.00 0.00 94 1017.3
20260906093532 54 142 8.0 16.0 0.00 0.00 0.00 94 1017.2
20260906093056 54 153 8.0 16.0 0.00 0.00 0.00 94 1017.0
20260906092533 54 136 10.0 15.0 0.00 0.00 0.00 94 1017.0
20260906092031 54 146 11.0 15.0 0.00 0.00 0.00 93 1016.8
20260906091555 54 144 9.0 13.0 0.00 0.00 0.00 94 1016.9
20260906091029 54 136 6.0 9.0 0.00 0.00 0.00 94 1016.9
20260906090529 54 142 6.0 8.0 0.00 0.00 0.00 93 1017.0
20260906090055 54 150 6.0 9.0 0.00 0.00 0.00 93 1017.0
20260906085531 55 157 6.0 9.0 0.00 0.00 0.00 93 1017.0
20260906085028 55 153 6.0 9.0 0.00 0.00 0.00 93 1017.0
20260906084554 55 153 5.0 9.0 0.00 0.00 0.00 93 1017.0
20260906084030 55 179 5.0 9.0 0.00 0.00 0.00 93 1017.0
20260906083529 54 143 6.0 9.0 0.00 0.00 0.00 93 1017.0
20260906083048 54 146 5.0 10.0 0.00 0.00 0.00 93 1017.0
20260906082529 54 136 6.0 10.0 0.00 0.00 0.00 93 1016.9
20260906082029 54 148 5.0 9.0 0.00 0.00 0.00 93 1016.9
20260906081554 54 152 6.0 9.0 0.00 0.00 0.00 92 1016.8
20260906081029 54 150 5.0 8.0 0.00 0.00 0.00 92 1016.8
20260906080527 54 155 4.0 7.0 0.00 0.00 0.00 92 1016.8
20260906080058 53 182 2.0 5.0 0.00 0.00 0.00 92 1016.8
20260906075528 53 182 2.0 4.0 0.00 0.00 0.00 92 1016.8
20260906075029 53 182 2.0 5.0 0.00 0.00 0.00 92 1016.8
20260906074557 53 182 3.0 5.0 0.00 0.00 0.00 91 1016.7
20260906074029 53 181 3.0 5.0 0.00 0.00 0.00 91 1016.6
20260906073528 53 182 2.0 3.0 0.00 0.00 0.00 90 1016.6
20260906073051 53 182 2.0 3.0 0.00 0.00 0.00 90 1016.6
20260906072530 53 181 2.0 3.0 0.00 0.00 0.00 90 1016.6
20260906072031 53 182 2.0 3.0 0.00 0.00 0.00 90 1016.7
20260906071555 53 182 3.0 3.0 0.00 0.00 0.00 90 1016.6
20260906071030 53 182 2.0 2.0 0.00 0.00 0.00 89 1016.7
20260906070529 53 182 1.0 2.0 0.00 0.00 0.00 89 1016.7
20260906070051 53 182 1.0 2.0 0.00 0.00 0.00 88 1016.6
20260906065531 53 181 1.0 2.0 0.00 0.00 0.00 88 1016.7
20260906065029 53 182 1.0 2.0 0.00 0.00 0.00 88 1016.6
20260906064548 54 182 1.0 2.0 0.00 0.00 0.00 88 1016.7
20260906064029 54 182 0.0 2.0 0.00 0.00 0.00 87 1016.6
20260906063533 54 181 1.0 2.0 0.00 0.00 0.00 87 1016.7
20260906063052 54 182 1.0 1.0 0.00 0.00 0.00 87 1016.6
20260906062531 54 182 1.0 2.0 0.00 0.00 0.00 87 1016.7
20260906062029 54 182 0.0 2.0 0.00 0.00 0.00 87 1016.7
20260906061549 54 182 0.0 2.0 0.00 0.00 0.00 87 1016.6
20260906061028 54 182 0.0 2.0 0.00 0.00 0.00 87 1016.6
20260906060529 55 0 0.0 0.0 0.00 0.00 0.00 87 1016.7
20260906060058 55 0 0.0 0.0 0.00 0.00 0.00 86 1016.6
20260906055529 55 0 0.0 0.0 0.00 0.00 0.00 86 1016.6
20260906055032 55 0 0.0 0.0 0.00 0.00 0.00 86 1016.7
20260906054555 55 0 0.0 2.0 0.00 0.00 0.00 86 1016.6
20260906054029 55 0 0.0 2.0 0.00 0.00 0.00 86 1016.6
20260906053528 55 182 1.0 1.0 0.00 0.00 0.00 85 1016.6
20260906053049 55 182 1.0 1.0 0.00 0.00 0.00 85 1016.6
20260906052531 56 0 0.0 2.0 0.00 0.00 0.00 84 1016.5
20260906052030 56 0 0.0 2.0 0.00 0.00 0.00 84 1016.4
20260906051554 56 181 1.0 2.0 0.00 0.00 0.00 83 1016.3
20260906051029 56 182 2.0 2.0 0.00 0.00 0.00 83 1016.3
20260906050529 57 182 0.0 1.0 0.00 0.00 0.00 82 1016.3
20260906050055 57 0 0.0 0.0 0.00 0.00 0.00 82 1016.3
20260906045532 57 0 0.0 0.0 0.00 0.00 0.00 82 1016.3
20260906045029 58 0 0.0 0.0 0.00 0.00 0.00 81 1016.3
20260906044553 58 0 0.0 0.0 0.00 0.00 0.00 80 1016.4
20260906044032 58 0 0.0 0.0 0.00 0.00 0.00 80 1016.3
20260906043528 59 0 0.0 0.0 0.00 0.00 0.00 79 1016.3
20260906043048 59 0 0.0 0.0 0.00 0.00 0.00 79 1016.3
20260906042529 59 0 0.0 0.0 0.00 0.00 0.00 77 1016.4
20260906042028 60 0 0.0 0.0 0.00 0.00 0.00 77 1016.4
20260906041549 60 0 0.0 2.0 0.00 0.00 0.00 75 1016.5
20260906041030 60 0 0.0 2.0 0.00 0.00 0.00 74 1016.5
20260906040529 61 0 0.0 2.0 0.00 0.00 0.00 73 1016.6
20260906040053 61 182 0.0 2.0 0.00 0.00 0.00 73 1016.6
20260906035530 61 182 0.0 1.0 0.00 0.00 0.00 72 1016.6
20260906035030 62 0 0.0 1.0 0.00 0.00 0.00 70 1016.5
20260906034551 62 182 0.0 2.0 0.00 0.00 0.00 70 1016.6
20260906034034 63 182 0.0 2.0 0.00 0.00 0.00 70 1016.5
20260906033528 63 0 0.0 2.0 0.00 0.00 0.00 70 1016.6
20260906033048 64 0 0.0 2.0 0.00 0.00 0.00 68 1016.5
20260906032529 64 0 0.0 2.0 0.00 0.00 0.00 67 1016.5
20260906032029 65 0 0.0 2.0 0.00 0.00 0.00 67 1016.5
20260906031549 65 182 1.0 2.0 0.00 0.00 0.00 66 1016.5
20260906031033 65 182 0.0 2.0 0.00 0.00 0.00 64 1016.5
20260906030528 66 0 0.0 2.0 0.00 0.00 0.00 63 1016.5
20260906030052 66 182 2.0 2.0 0.00 0.00 0.00 60 1016.4
20260906025529 66 182 0.0 2.0 0.00 0.00 0.00 62 1016.5
20260906025029 66 182 1.0 3.0 0.00 0.00 0.00 60 1016.5
20260906024548 66 182 2.0 3.0 0.00 0.00 0.00 59 1016.4
20260906024029 66 182 1.0 2.0 0.00 0.00 0.00 59 1016.5
20260906023529 67 182 1.0 2.0 0.00 0.00 0.00 57 1016.3
20260906023052 67 182 1.0 2.0 0.00 0.00 0.00 57 1016.4
20260906022529 67 182 1.0 3.0 0.00 0.00 0.00 56 1016.4
20260906022037 67 182 2.0 4.0 0.00 0.00 0.00 55 1016.4
20260906021557 67 182 3.0 4.0 0.00 0.00 0.00 56 1016.4
20260906021028 67 182 2.0 4.0 0.00 0.00 0.00 57 1016.3
20260906020529 67 182 2.0 4.0 0.00 0.00 0.00 56 1016.4
20260906020048 68 209 2.0 4.0 0.00 0.00 0.00 57 1016.4
20260906015533 68 209 3.0 4.0 0.00 0.00 0.00 58 1016.6
20260906015029 68 209 2.0 4.0 0.00 0.00 0.00 57 1016.5
20260906014549 68 209 2.0 4.0 0.00 0.00 0.00 58 1016.5
20260906014031 68 209 3.0 4.0 0.00 0.00 0.00 58 1016.5
20260906013530 68 198 2.0 5.0 0.00 0.00 0.00 58 1016.6
20260906013050 68 198 4.0 5.0 0.00 0.00 0.00 57 1016.5
20260906012530 69 194 3.0 5.0 0.00 0.00 0.00 57 1016.6
20260906012033 69 201 2.0 5.0 0.00 0.00 0.00 57 1016.5
20260906011602 69 199 3.0 5.0 0.00 0.00 0.00 58 1016.6
20260906011028 69 199 2.0 6.0 0.00 0.00 0.00 58 1016.4
20260906010529 70 198 2.0 6.0 0.00 0.00 0.00 58 1016.5
20260906010051 70 223 3.0 6.0 0.00 0.00 0.00 57 1016.6
20260906005529 70 261 2.0 4.0 0.00 0.00 0.00 54 1016.5
20260906005034 70 261 3.0 5.0 0.00 0.00 0.00 53 1016.5
20260906004554 70 235 2.0 5.0 0.00 0.00 0.00 55 1016.6
20260906004031 71 219 3.0 5.0 0.00 0.00 0.00 56 1016.5
20260906003532 71 226 3.0 5.0 0.00 0.00 0.00 57 1016.6
20260906003050 71 224 3.0 5.0 0.00 0.00 0.00 57 1016.5
20260906002528 71 269 2.0 5.0 0.00 0.00 0.00 54 1016.5
20260906002029 71 249 3.0 5.0 0.00 0.00 0.00 54 1016.5
20260906001553 72 271 2.0 5.0 0.00 0.00 0.00 54 1016.6
20260906001033 72 244 3.0 6.0 0.00 0.00 0.00 53 1016.5
20260906000533 72 229 3.0 6.0 0.00 0.00 0.00 55 1016.6
20260906000051 73 238 4.0 7.0 0.00 0.00 0.00 56 1016.6
20260905235529 73 229 4.0 7.0 0.00 0.00 0.00 55 1016.7
20260905235029 73 228 4.0 6.0 0.00 0.00 0.00 54 1016.5
20260905234555 74 255 3.0 6.0 0.00 0.00 0.00 55 1016.6
20260905234033 74 209 4.0 6.0 0.00 0.00 0.00 53 1016.6
20260905233529 75 248 3.0 6.0 0.00 0.00 0.00 52 1016.6
20260905233105 75 209 4.0 6.0 0.00 0.00 0.00 52 1016.7
20260905232529 75 255 4.0 6.0 0.00 0.00 0.00 51 1016.7
20260905232028 76 217 3.0 7.0 0.00 0.00 0.00 52 1016.8
20260905231554 75 218 3.0 7.0 0.00 0.00 0.00 51 1016.8
20260905231029 75 269 3.0 6.0 0.00 0.00 0.00 51 1016.8
20260905230533 75 236 2.0 7.0 0.00 0.00 0.00 49 1016.8
20260905230051 75 292 3.0 7.0 0.00 0.00 0.00 48 1016.8
20260905225528 75 293 2.0 5.0 0.00 0.00 0.00 49 1016.8